Find Starlink 11420

NORAD ID: 62591 Int'l Des: 2025-008 Owner: SPXS Country: US Constellation: starlink operational
LEOCIRCULAR

Live Position

Loading 3D Globe...

About Starlink 11420

Description loading...

Upcoming Passes

Passes for default location (London). Set your location on the main map for personalized predictions.

Altitude History

Loading altitude history...

Two-Line Element Set

1 62591U 25008E 26124.13997755 .00189980 00000-0 14465-2 0 9996
2 62591 42.9991 152.0597 0002196 270.7681 89.2935 15.70905339 76019
Epoch: May 4, 2026 • Age: 8 hours

Current Status

Altitude 360.4 km
Velocity 7.70 km/s
Sub-Earth Point 42.81°N, 161.33°W
Launch Date Jan 13, 2025
Age 1.3 years
Type internet

Technical Details

Classification Payload
Mass 960.00 kg
Dry Mass 910.00 kg
Total Mass 960.00 kg
Length 0.30 m
Diameter 4.10 m
Span 29.00 m
Shape Box + pan
Manufacturer SPXS
Bus Type Starlink V2MD
Phase Status In Orbit
Owner/State SPXS/US

Most Searched